Simultaneous Nadir Overpasses (SNOs) Predictions

Prediction of SNOs between GOES-16 and METOP-B Satellite Orbit:

Table of predicted SNOs for the next 14.0 days since TLE Epoch: 11/11/2023
Index Date Time (GOES-16) GOES-16 Lat,Lon METOP-B Lat,Lon Distance(km) Time Diff (sec)
1 11/12/2023 02:40:20 0.06, -75.20 -0.51, -77.78 293.25 80
2 11/13/2023 02:17:00 0.06, -75.21 0.59, -72.78 276.35 80
3 11/14/2023 14:38:30 -0.05, -75.24 0.44, -77.34 240.37 80
4 11/15/2023 14:17:51 -0.05, -75.24 -0.72, -72.36 329.36 80
5 11/17/2023 02:36:49 0.04, -75.23 -0.34, -76.95 195.96 80
6 11/18/2023 02:13:29 0.04, -75.23 0.77, -71.95 373.88 80
7 11/19/2023 14:32:19 -0.03, -75.27 0.25, -76.51 142.24 80
8 11/20/2023 14:11:38 -0.03, -75.28 -0.86, -71.52 428.09 80
9 11/22/2023 02:33:17 0.03, -75.27 -0.18, -76.11 95.91 80
10 11/23/2023 02:09:56 0.03, -75.29 0.94, -71.11 474.90 80
11 11/24/2023 14:31:27 -0.02, -75.33 0.07, -75.68 39.84 80
